This demonstration page uses our WeatherBlox Daily Observations layout. Learn more.

Left ArrowRight Arrow

40.92945, -100.16068

Hourly Observations for January 16, 2021

Temp ( °F °C ) Dew Point ( °F °C ) Humidity (%) Winds ( mph kmh ) Pressure ( in mb ) Visibility ( mi km ) Precip ( " mm )
12:15 am 00:15 Clear 23 -4.8 17 -8.2 77 77 W 7 11 30.13 1020 10 16.0934 0 0
12:35 am 00:35 Clear 25 -4.1 18 -7.8 76 76 WNW 9 15 30.11 1020 10 16.0934 0 0
12:55 am 00:55 Clear 24 -4.5 17 -8.1 76 76 NW 8 13 30.1 1019 10 16.0934 0 0
1:15 am 01:15 Clear 24 -4.6 17 -8.5 74 74 NW 10 17 30.09 1019 10 16.0934 0 0
1:35 am 01:35 Clear 24 -4.3 17 -8.6 72 72 NW 12 19 30.1 1019 10 16.0934 0 0
1:55 am 01:55 Clear 24 -4.5 16 -8.7 73 73 WNW 9 15 30.1 1019 10 16.0934 0 0
2:15 am 02:15 Clear 23 -5.2 16 -8.7 77 77 WNW 7 11 30.1 1019 10 16.0934 0 0
2:35 am 02:35 Clear 22 -5.7 16 -9 78 78 WNW 8 13 30.09 1019 10 16.0934 0 0
2:55 am 02:55 Clear 22 -5.5 16 -8.9 77 77 WNW 7 11 30.09 1019 10 16.0934 0 0
3:15 am 03:15 Clear 22 -5.6 16 -8.7 79 79 WNW 6 9 30.08 1019 10 16.0934 0 0
3:35 am 03:35 Mostly Cloudy 22 -5.4 17 -8.6 78 78 W 7 11 30.09 1019 10 16.0934 0 0
3:55 am 03:55 Cloudy 24 -4.6 17 -8.6 74 74 W 7 11 30.07 1018 10 16.0934 0 0
4:15 am 04:15 Cloudy 25 -4.1 17 -8.5 72 72 W 5 7 30.06 1018 10 16.0934 0 0
4:35 am 04:35 Cloudy 25 -3.7 17 -8.5 70 70 WNW 12 19 30.05 1018 10 16.0934 0 0
4:55 am 04:55 Cloudy 26 -3.5 17 -8.6 68 68 WNW 9 15 30.05 1018 10 16.0934 0 0
5:15 am 05:15 Cloudy 28 -2.5 17 -8.6 63 63 WNW 6 9 30.03 1017 10 16.0934 0 0
5:35 am 05:35 Cloudy 28 -2.5 17 -8.2 65 65 WNW 6 9 30.03 1017 10 16.0934 0 0
5:55 am 05:55 Partly Cloudy 26 -3.4 17 -8.1 70 70 WNW 7 11 30.04 1017 10 16.0934 0 0
6:15 am 06:15 Partly Cloudy 26 -3.4 18 -8 71 71 WNW 3 6 30.05 1018 10 16.0934 0 0
6:35 am 06:35 Cloudy 26 -3.1 19 -7.5 72 72 Calm 30.05 1018 10 16.0934 0 0
6:55 am 06:55 Cloudy 27 -2.9 19 -7.5 71 71 WNW 3 6 30.06 1018 10 16.0934 0 0
7:15 am 07:15 Partly Cloudy 26 -3.1 19 -7.5 72 72 Calm 30.05 1018 10 16.0934 0 0
7:35 am 07:35 Clear 25 -3.9 18 -7.8 75 75 WNW 5 7 30.06 1018 10 16.0934 0 0
7:55 am 07:55 Clear 24 -4.2 18 -7.6 77 77 W 7 11 30.06 1018 10 16.0934 0 0
8:15 am 08:15 Sunny 25 -3.7 19 -7.5 75 75 W 5 7 30.04 1017 10 16.0934 0 0
8:35 am 08:35 Sunny 25 -3.9 19 -7.3 78 78 Calm 30.05 1017 10 16.0934 0 0
8:55 am 08:55 Sunny 26 -3.5 19 -7 77 77 WSW 3 6 30.04 1017 10 16.0934 0 0
9:15 am 09:15 Sunny 27 -2.7 19 -7.4 70 70 Calm 30.04 1017 10 16.0934 0 0
9:35 am 09:35 Mostly Cloudy 29 -1.4 19 -7.5 64 64 W 6 9 30.04 1017 10 16.0934 0 0
9:55 am 09:55 Cloudy 32 -0.1 18 -7.7 57 57 W 13 20 30.04 1017 10 16.0934 0 0
10:15 am 10:15 Cloudy 32 0.1 17 -8.1 54 54 W 12 19 30.05 1017 10 16.0934 0 0
10:35 am 10:35 Cloudy 35 1.6 18 -8 49 49 WNW 10 17 30.03 1017 10 16.0934 0 0
10:55 am 10:55 Cloudy 38 3.1 18 -8 44 44 WNW 15 24 30.02 1016 10 16.0934 0 0
11:15 am 11:15 Cloudy 39 4 20 -6.7 46 46 WNW 17 28 30.01 1016 10 16.0934 0 0
11:35 am 11:35 Cloudy 40 4.6 22 -5.4 49 49 WNW 21 33 29.99 1016 10 16.0934 0 0
11:55 am 11:55 Cloudy 43 6.1 24 -4.7 46 46 NNW 25 41 29.98 1015 10 16.0934 0 0
12:15 pm 12:15 Cloudy 43 6.3 25 -4.1 48 48 NNW 25 41 29.97 1015 10 16.0934 0 0
12:35 pm 12:35 Cloudy 44 6.4 25 -3.9 48 48 NNW 24 39 29.96 1015 10 16.0934 0 0
12:55 pm 12:55 Cloudy 43 6.1 24 -4.2 48 48 NNW 24 39 29.96 1014 10 16.0934 0 0
1:15 pm 13:15 Cloudy 43 6.1 25 -3.7 50 50 NNW 25 41 29.95 1014 10 16.0934 0 0
1:35 pm 13:35 Partly Cloudy 44 6.8 25 -3.8 47 47 NNW 22 35 29.94 1014 10 16.0934 0 0
1:55 pm 13:55 Sunny 45 7.2 26 -3.6 47 47 NNW 25 41 29.94 1014 10 16.0934 0 0
2:15 pm 14:15 Partly Cloudy 44 6.7 26 -3.6 48 48 NNW 23 37 29.94 1014 10 16.0934 0 0
2:35 pm 14:35 Mostly Cloudy 44 6.8 26 -3.6 48 48 NNW 21 33 29.94 1014 10 16.0934 0 0
2:55 pm 14:55 Partly Cloudy 45 7 26 -3.4 48 48 NNW 21 33 29.94 1014 10 16.0934 0 0
3:15 pm 15:15 Partly Cloudy 45 7.3 25 -3.7 46 46 NW 30 48 29.95 1014 10 16.0934 0 0
3:35 pm 15:35 Cloudy 44 6.5 24 -4.7 45 45 NNW 29 46 29.95 1014 10 16.0934 0 0
3:55 pm 15:55 Cloudy 43 6.2 23 -5.1 45 45 NNW 26 43 29.97 1015 10 16.0934 0 0
4:15 pm 16:15 Cloudy 44 6.6 24 -4.6 45 45 NNW 26 43 29.97 1015 10 16.0934 0 0
4:35 pm 16:35 Mostly Cloudy 43 6.2 24 -4.6 46 46 NNW 22 35 29.99 1015 10 16.0934 0 0
4:55 pm 16:55 Partly Cloudy 42 5.7 23 -5.2 46 46 NNW 20 31 30 1016 10 16.0934 0 0
5:15 pm 17:15 Mostly Cloudy 41 5.2 23 -5 48 48 NNW 17 28 30.01 1016 10 16.0934 0 0
5:35 pm 17:35 Cloudy 40 4.7 23 -4.8 51 51 NNW 13 20 30.02 1017 10 16.0934 0 0
5:55 pm 17:55 Mostly Cloudy 40 4.5 23 -5 50 50 NNW 12 19 30.02 1017 10 16.0934 0 0
6:15 pm 18:15 Mostly Cloudy 40 4.5 22 -5.6 48 48 NNW 17 28 30.02 1017 10 16.0934 0 0
6:35 pm 18:35 Mostly Cloudy 38 3.6 22 -5.5 52 52 NW 12 19 30.03 1017 10 16.0934 0 0
6:55 pm 18:55 Mostly Cloudy 38 3.1 22 -5.3 54 54 NW 10 17 30.04 1017 10 16.0934 0 0
7:15 pm 19:15 Partly Cloudy 37 2.5 22 -5.3 57 57 NW 7 11 30.04 1017 10 16.0934 0 0
7:35 pm 19:35 Clear 35 1.8 23 -5.2 60 60 WNW 7 11 30.05 1018 10 16.0934 0 0
7:55 pm 19:55 Clear 34 0.9 22 -5.3 64 64 WNW 9 15 30.06 1018 10 16.0934 0 0
8:15 pm 20:15 Clear 34 1.2 22 -5.5 61 61 WNW 15 24 30.07 1018 10 16.0934 0 0
8:35 pm 20:35 Clear 36 2.3 22 -5.6 56 56 WNW 16 26 30.05 1018 10 16.0934 0 0
8:55 pm 20:55 Clear 35 1.6 22 -5.5 60 60 WNW 13 20 30.06 1018 10 16.0934 0 0
9:15 pm 21:15 Clear 35 1.8 22 -5.5 59 59 WNW 16 26 30.06 1018 10 16.0934 0 0
9:35 pm 21:35 Mostly Cloudy 35 1.9 23 -5 61 61 WNW 13 20 30.06 1018 10 16.0934 0 0
9:55 pm 21:55 Cloudy 35 1.5 23 -4.8 63 63 WNW 12 19 30.06 1018 10 16.0934 0 0
10:15 pm 22:15 Cloudy 35 1.9 24 -4.5 63 63 WNW 13 20 30.06 1018 10 16.0934 0 0
10:35 pm 22:35 Mostly Cloudy 36 2 25 -4 65 65 WNW 16 26 30.06 1018 10 16.0934 0 0
10:55 pm 22:55 Cloudy 36 2.3 25 -3.8 64 64 WNW 16 26 30.06 1018 10 16.0934 0 0
11:15 pm 23:15 Mostly Cloudy 37 2.9 26 -3.5 63 63 WNW 16 26 30.06 1018 10 16.0934 0 0
11:35 pm 23:35 Partly Cloudy 37 2.5 26 -3.5 65 65 WNW 14 22 30.06 1018 10 16.0934 0 0
11:55 pm 23:55 Partly Cloudy 36 2 25 -3.7 66 66 WNW 16 26 30.07 1018 10 16.0934 0 0

Powered by AerisWeather